TIME,DELAY(SENSOR),PRES,OXYGEN,RAWTEMP,T(OPTODE),TCPHASE,FLUOR,BETA(BETA700),BETA(BETA412),BETA(BETA440),CDOM,C(CSC),ED(ED412.40),ED(ED444.00),ED(ED489.70),ED(ED554.30),LU(LU411.80),LU(LU443.40),LU(LU489.60),LU(LU554.10),COMP,TILTX,TILTY,CHECK
1349148640,5809,839.3599853515625000,42.5263290405273440,659.8234863281250000,4.6337828636169430,54.6214408874511700,52,100,86,79,81,15214,2147754797,2147425188,2148011218,2147875026,2147642240,2147064118,2148258706,2147198125,854,5,13,37465
1349152236,5806,897.3400268554688000,46.1814384460449200,667.2680053710938000,4.3884029388427730,54.1710700988769500,53,100,88,78,80,15215,2147760658,2147423131,2148011026,2147872155,2147642368,2147061778,2148260589,2147196388,607,5,13,46022
1349155836,5809,913.3200073242188000,46.9911308288574200,668.0114746093750000,4.3638629913330080,54.0666198730468750,52,98,87,80,82,15213,2147757257,2147420955,2148010002,2147874934,2147644918,2147058962,2148260260,2147195748,3439,4,13,15803
1349159436,5809,937.3900146484375000,47.5567588806152340,670.7172241210938000,4.2745041847229000,54.0172996520996100,53,97,88,79,80,15216,2147759670,2147422528,2148008054,2147873490,2147642971,2147064292,2148264649,2147196964,85,5,13,36186
1349163036,5807,946.0200195312500000,47.7106895446777340,671.0941772460938000,4.2620429992675780,54.0056190490722660,53,98,86,80,83,15217,2147762304,2147423058,2148013586,2147873846,2147641536,2147061531,2148258304,2147195986,125,5,13,48384
1349166636,5813,949.5900268554688000,47.5634918212890600,671.0128784179688000,4.2647299766540530,54.0250816345214840,52,98,90,78,80,15211,2147760640,2147421632,2148010358,2147874203,2147639076,2147061888,2148255926,2147198381,365,5,13,21737
1349170236,5809,976.0399780273438000,47.9495887756347660,673.2169189453125000,4.1918740272521970,53.9970893859863300,54,99,86,79,82,15210,2147759798,2147421348,2148009270,2147875922,2147640310,2147061220,2148262592,2147198765,14,5,13,9399
1349173836,5808,981.0100097656250000,47.9686698913574200,673.2470092773438000,4.1908760070800780,53.9929695129394500,52,100,87,79,81,15213,2147760457,2147422180,2148007707,2147876086,2147642112,2147067245,2148260233,2147196608,3571,4,13,29845
1349177436,5810,980.6500244140625000,47.8432388305664060,673.8848876953125000,4.1697769165039060,54.0183601379394500,53,99,83,79,81,15213,2147754578,2147423670,2148008182,2147872557,2147642806,2147061165,2148253458,2147198966,305,4,13,57850
1349181036,5808,980.0200195312500000,48.2314109802246100,674.6226806640625000,4.1453700065612790,53.9725418090820300,53,98,87,80,82,15211,2147758262,2147418450,2148009490,2147875236,2147640950,2147064411,2148258550,2147195574,133,4,13,24962
1349184636,5808,973.4500122070312000,48.3817901611328100,675.8604125976562000,4.1044120788574220,53.9654083251953100,53,102,87,80,81,15210,2147759085,2147421540,2148008493,2147877915,2147644534,2147065609,2148262811,2147200256,3456,5,13,57534
1349188236,5809,965.4099731445312000,48.6138801574707000,677.0073242187500000,4.0664391517639160,53.9502906799316400,53,101,89,80,82,15216,2147762642,2147422601,2148010724,2147874496,2147645238,2147058514,2148262171,2147199926,3286,5,13,9700
1349191836,5808,970.3300170898438000,48.8616409301757800,677.0443725585938000,4.0652141571044920,53.9185295104980500,53,98,88,79,80,15214,2147757275,2147422966,2148009545,2147876370,2147645321,2147062985,2148261851,2147199104,277,5,13,21518
1349195436,5805,983.0499877929688000,48.3027992248535160,674.7589721679688000,4.1408619880676270,53.9647789001464840,52,98,87,80,81,15215,2147761152,2147423908,2148005522,2147875666,2147646884,2147064027,2148260480,2147200576,3413,4,13,9249
1349199036,5807,973.1400146484375000,47.9245910644531250,675.3527221679688000,4.1212139129638670,54.0244903564453100,52,102,89,79,81,15213,2147758774,2147420992,2148008457,2147872786,2147645394,2147059419,2148267721,2147199744,257,5,13,39353
1349202636,5811,981.0300292968750000,47.8468208312988300,675.4705810546875000,4.1173110008239750,54.0363502502441400,53,98,88,78,81,15210,2147761435,2147421339,2148008256,2147872530,2147642843,2147060251,2148262400,2147198921,3596,4,13,4997
1349206236,5806,982.2899780273438000,47.9593200683593750,674.3997802734375000,4.1527438163757320,54.0075492858886700,52,99,87,78,81,15211,2147755766,2147422061,2148009636,2147872246,2147644068,2147061696,2148262171,2147196992,158,5,13,9077
1349209836,5806,988.7500000000000000,47.5365791320800800,674.5156860351562000,4.1489109992980960,54.0727882385253900,52,100,88,79,82,15211,2147760228,2147424438,2148008512,2147873252,2147643273,2147063104,2148261860,2147197193,175,5,13,6233
1349213436,5811,993.7800292968750000,47.9093093872070300,674.0029296875000000,4.1658759117126465,54.0103492736816400,52,100,90,80,80,15210,2147758226,2147421449,2148009216,2147872109,2147642898,2147061769,2148259757,2147197760,493,4,13,33514
1349217036,5809,1006.2500000000000000,46.7662010192871100,671.7736206054688000,4.2395920753479000,54.1450691223144500,52,98,87,79,79,15209,2147759506,2147422171,2148009618,2147875867,2147645339,2147065472,2148257846,2147197412,514,5,13,59505
1349220636,5808,988.8800048828125000,47.0379104614257800,672.7736206054688000,4.2065320014953610,54.1220207214355500,52,99,89,80,80,15209,2147756690,2147418724,2148007789,2147874825,2147643126,2147066422,2148261330,2147197403,370,5,13,47097
1349224236,5810,993.5999755859375000,46.8551597595214840,672.9959716796875000,4.1991791725158690,54.1494216918945300,53,99,87,78,81,15207,2147759433,2147419748,2148009572,2147875273,2147641974,2147066084,2148260918,2147195830,278,5,13,22498
1349227836,5805,988.7899780273438000,46.9575805664062500,673.6978149414062000,4.1759657859802250,54.1438903808593750,53,98,83,79,82,15207,2147758628,2147421714,2148007588,2147875227,2147645001,2147062820,2148262436,2147199670,415,4,13,54939
1349231436,5807,989.2800292968750000,47.4156913757324200,674.1757812500000000,4.1601557731628420,54.0797309875488300,52,98,85,78,82,15206,2147761325,2147420077,2148011977,2147872996,2147644827,2147057572,2148259373,2147197485,218,5,13,64786
1349235036,5808,1000.9000244140625000,48.0960502624511700,674.2462768554688000,4.1578249931335450,53.9921684265136700,52,101,87,80,81,15202,2147761097,2147420864,2148009545,2147874358,2147642953,2147059940,2148257746,2147199332,2911,4,13,29460
1349238636,5808,988.1900024414062000,48.1008605957031250,675.3801879882812000,4.1203041076660160,54.0014495849609400,53,99,88,79,81,15206,2147758866,2147423780,2148012288,2147874075,2147640804,2147059958,2148262674,2147197494,469,5,13,17640
1349242236,5805,1000.5700073242188000,48.1358413696289060,674.8220825195312000,4.1387710571289060,53.9884185791015600,52,99,88,79,81,15197,2147756726,2147418404,2148008228,2147874322,2147645394,2147062537,2148257609,2147199113,3319,5,13,1495
1349245836,5809,1009.2199707031250000,48.0597190856933600,674.1832275390625000,4.1599102020263670,53.9897193908691400,51,99,84,79,81,15198,2147758921,2147423268,2148008969,2147875209,2147642898,2147064457,2148260544,2147194989,518,5,13,35050
1349249436,5811,990.2100219726562000,47.5437698364257800,673.7456054687500000,4.1743869781494140,54.0602188110351560,52,101,87,79,81,15196,2147758921,2147422098,2148010322,2147871789,2147643364,2147061705,2148258715,2147199030,3069,5,13,4861
1349253036,5807,999.5300292968750000,47.8612098693847660,673.4797973632812000,4.1831779479980470,54.0112495422363300,52,99,87,79,80,15195,2147758016,2147419876,2148010962,2147872091,2147644352,2147060251,2148259931,2147199616,2378,4,13,56135
1349256636,5810,996.0599975585938000,47.6735801696777340,674.3607788085938000,4.1540369987487790,54.0468902587890600,52,99,86,79,82,15192,2147760137,2147422482,2148009993,2147876662,2147644324,2147064128,2148266349,2147196041,2370,4,13,75
1349260236,5807,992.1900024414062000,47.5869102478027340,674.3994750976562000,4.1527538299560550,54.0612487792968750,53,100,89,79,83,15193,2147757138,2147421531,2148009289,2147874569,2147643474,2147065920,2148263689,2147195145,3183,5,13,26136
1349263836,5809,991.4099731445312000,46.9295806884765600,674.6541748046875000,4.1443271636962890,54.1534004211425800,53,98,83,79,80,15196,2147760585,2147421449,2148007643,2147875766,2147642294,2147067373,2148259328,2147200246,461,5,13,14110
1349267436,5809,988.9400024414062000,47.6976394653320300,674.3693237304688000,4.1537551879882810,54.0438194274902340,52,99,85,79,83,15195,2147756361,2147422701,2148009316,2147874788,2147642541,2147063625,2148261284,2147194925,92,5,13,39291
1349271036,5809,989.7500000000000000,47.8352012634277340,676.2072143554688000,4.0929341316223145,54.0493812561035160,51,102,87,80,82,15189,2147758857,2147419382,2148010678,2147874313,2147641700,2147068032,2148261741,2147199780,3359,5,13,28405
1349274636,5808,1000.4699707031250000,48.3938102722168000,676.0068969726562000,4.0995621681213380,53.9663810729980500,52,100,87,79,82,15195,2147756653,2147419318,2148011712,2147874541,2147643520,2147059840,2148259099,2147199405,82,5,13,33485
1349278236,5805,997.5100097656250000,47.8634605407714840,674.9553222656250000,4.1343669891357420,54.0268592834472660,52,98,88,79,82,15192,2147755300,2147421312,2148008045,2147872512,2147640484,2147065334,2148262921,2147197760,396,4,13,22666
1349281836,5807,973.0999755859375000,47.9046592712402340,676.7476196289062000,4.0750408172607420,54.0485992431640600,53,101,86,80,81,15177,2147759003,2147421760,2148010294,2147871277,2147643977,2147063259,2148262528,2147196306,273,5,13,16123
1349285436,5810,979.3699951171875000,48.6200904846191400,678.3004150390625000,4.0236129760742190,53.9639205932617200,52,99,89,79,82,15174,2147760329,2147421924,2148011721,2147874139,2147641243,2147061851,2148260928,2147194861,753,5,13,29362
1349289036,5806,975.0800170898438000,48.4725914001464840,676.8364868164062000,4.0720939636230470,53.9693107604980500,53,101,91,79,81,15175,2147761856,2147423506,2148010249,2147872832,2147642404,2147067648,2148261056,2147197165,197,5,13,2000
1349292636,5807,984.2399902343750000,48.4057693481445300,676.9215698242188000,4.0692811012268070,53.9795303344726560,52,99,88,80,80,15174,2147758381,2147423049,2148011291,2147873197,2147643282,2147059648,2148259401,2147199378,330,5,13,5392
1349293256,5809,986.1400146484375000,48.1580505371093750,676.9376220703125000,4.0687499046325680,54.0130500793457000,52,101,87,79,81,15221,2147757330,2147419145,2148007643,2147872768,2147643492,2147066377,2148257152,2147197796,3326,5,13,7287
